STARLINK-36753

Last updated on Tue Mar 10 2026 00:02:05 GMT+0000 (Coordinated Universal Time)

1 67694U 26025B 26068.53417291 .00306425 00000+0 19743-2 0 9996 2 67694 97.2828 180.0737 0001869 356.1891 3.9360 15.75285562 5926
UTC large
Height (km)
Speed (km/s)
/
Latitude / Longitude
Inclination (degrees)
Orbital Period (minutes)
Azimuth
Elevation
Range (km)
Doppler Factor

Next 0 passes for location: London (51.5072 / 0.1276)

Sorry there are no passes over London.